Weather History for KEST - March, 2013

Change the Weather History Date:

Thursday, March 7, 2013

  Actual Average Record
Temperature  
Mean Temperature 18 °F 28 °F  
Max Temperature 28 °F 37 °F 71 °F (1987)
Min Temperature 7 °F 20 °F -9 °F (2008)
Degree Days  
Heating Degree Days 47 37  
Month to date heating degree days 309 265  
Since 1 July heating degree days 5948 6180  
Cooling Degree Days 0 0  
Month to date cooling degree days 0 0  
Year to date cooling degree days 0 0  
Moisture  
Dew Point 13 °F    
Average Humidity 88    
Maximum Humidity 100    
Minimum Humidity 75    
Precipitation  
Precipitation 0.00 in 0.03 in 0.72 in (1983)
Month to date precipitation 0.08 0.19  
Sea Level Pressure  
Sea Level Pressure 30.31 in    
Wind  
Wind Speed 12 mph (SE)    
Max Wind Speed 23 mph    
Max Gust Speed 28 mph    
Visibility 4 miles    
Events Fog    
T = Trace of Precipitation, MM = Missing Value Source: NWS Daily Summary

Daily Weather History Graph

Daily Weather History Graph

Search for Another Location

Airport or City:

Trip Planner

Search our weather history database for the weather conditions in past years. The results will help you decide how hot, cold, wet, or windy it might be!

Date:

Astronomy

Mar. 07, 2013 Rise Set
Actual Time 6:44 AM CST 6:15 PM CST
Civil Twilight 6:16 AM CST 6:44 PM CST
Nautical Twilight 5:43 AM CST 7:17 PM CST
Astronomical Twilight 5:09 AM CST 7:50 PM CST
Moon 3:51 AM CST (3/7) 1:58 PM CST (3/7)
Length of Visible Light 12h 28m
Length of Day
11h 31m
Waning Crescent, 20% of the Moon is Illuminated
Mar 7
Waning Crescent
Mar 11
New
Mar 19
First Quarter
Mar 27
Full
Apr 2
Last Quarter

Hourly Weather History & Observations

Time (CST) Temp. Windchill Dew Point Humidity Pressure Visibility Wind Dir Wind Speed Gust Speed Precip Events Conditions
12:48 AM 17.6 °F 9.3 °F 14.0 °F 86% 30.31 in 10.0 mi ESE 5.8 mph - N/A   Overcast
12:52 AM 18.0 °F 7.7 °F 14.0 °F 84% 30.37 in 10.0 mi ESE 8.1 mph - N/A   Overcast
1:52 AM 18.0 °F 6.1 °F 14.0 °F 84% 30.36 in 10.0 mi SE 10.4 mph - N/A   Overcast
2:22 AM 15.8 °F 6.1 °F 12.2 °F 86% 30.29 in 10.0 mi SSE 6.9 mph - N/A   Scattered Clouds
2:52 AM 14.0 °F 6.5 °F 12.0 °F 92% 30.36 in 10.0 mi SE 4.6 mph - N/A   Clear
3:52 AM 12.0 °F 2.7 °F 10.0 °F 92% 30.36 in 6.0 mi SE 5.8 mph - N/A   Clear
4:52 AM 10.9 °F 2.9 °F 9.0 °F 92% 30.36 in 3.0 mi ESE 4.6 mph - N/A   Clear
4:59 AM 8.6 °F -1.3 °F 8.6 °F 100% 30.29 in 1.8 mi SE 5.8 mph - N/A   Clear
5:06 AM 8.6 °F 0.1 °F 8.6 °F 100% 30.29 in 0.8 mi ESE 4.6 mph - N/A   Clear
5:16 AM 10.4 °F 4.0 °F 8.6 °F 92% 30.30 in 0.8 mi SE 3.5 mph - N/A   Mist
5:21 AM 10.4 °F 2.2 °F 8.6 °F 92% 30.30 in 1.0 mi SSE 4.6 mph - N/A   Clear
5:28 AM 8.6 °F -1.3 °F 6.8 °F 92% 30.29 in 2.0 mi SE 5.8 mph - N/A   Clear
5:37 AM 10.4 °F 0.8 °F 8.6 °F 92% 30.30 in 4.0 mi SE 5.8 mph - N/A   Clear
5:52 AM 9.0 °F -0.9 °F 8.1 °F 96% 30.37 in 1.8 mi SE 5.8 mph - N/A   Scattered Clouds
5:55 AM 8.6 °F 0.1 °F 8.6 °F 100% 30.29 in 1.0 mi SE 4.6 mph - N/A   Mist
6:06 AM 8.6 °F 0.1 °F 6.8 °F 92% 30.30 in 0.5 mi SE 4.6 mph - N/A Fog Light Freezing Fog
6:52 AM 8.1 °F -2.0 °F 6.1 °F 92% 30.37 in 0.2 mi ESE 5.8 mph - N/A Fog Light Freezing Fog
7:13 AM 8.6 °F -1.3 °F 6.8 °F 92% 30.29 in 1.2 mi SE 5.8 mph - N/A   Overcast
7:20 AM 8.6 °F -1.3 °F 6.8 °F 92% 30.29 in 3.0 mi SE 5.8 mph - N/A   Overcast
7:24 AM 10.4 °F -0.4 °F 6.8 °F 85% 30.29 in 1.8 mi SE 6.9 mph - N/A   Overcast
7:28 AM 10.4 °F -1.5 °F 8.6 °F 92% 30.29 in 0.8 mi SE 8.1 mph - N/A   Mist
7:45 AM 10.4 °F 0.8 °F 8.6 °F 92% 30.30 in 1.2 mi SE 5.8 mph - N/A   Overcast
7:52 AM 10.9 °F 1.4 °F 9.0 °F 92% 30.37 in 3.0 mi SE 5.8 mph - N/A   Overcast
8:15 AM 12.2 °F 1.7 °F 10.4 °F 92% 30.29 in 4.0 mi SE 6.9 mph - N/A   Scattered Clouds
9:52 AM 19.9 °F 6.2 °F 16.0 °F 85% 30.34 in 5.0 mi SSE 15.0 mph - N/A   Clear
10:52 AM 21.9 °F 8.2 °F 18.0 °F 85% 30.33 in 6.0 mi SSE 16.1 mph - N/A   Clear
11:52 AM 24.1 °F 12.5 °F 19.9 °F 84% 30.32 in 7.0 mi SSE 12.7 mph - N/A   Clear
12:52 PM 26.1 °F 14.5 °F 21.0 °F 81% 30.32 in 7.0 mi SE 13.8 mph - N/A   Clear
1:52 PM 27.0 °F 14.3 °F 21.9 °F 81% 30.28 in 6.0 mi SE 17.3 mph - N/A   Haze
2:52 PM 28.0 °F 15.7 °F 21.9 °F 78% 30.27 in 6.0 mi ESE 17.3 mph - N/A   Haze
3:52 PM 27.0 °F 14.3 °F 21.0 °F 78% 30.26 in 7.0 mi SE 17.3 mph - N/A   Clear
4:52 PM 26.1 °F 13.1 °F 21.0 °F 81% 30.26 in 6.0 mi ESE 17.3 mph - N/A   Haze
5:52 PM 25.0 °F 11.3 °F 19.9 °F 81% 30.27 in 6.0 mi SE 18.4 mph - N/A   Haze
6:52 PM 24.1 °F 9.4 °F 19.0 °F 81% 30.27 in 8.0 mi SE 20.7 mph - N/A   Clear
7:52 PM 21.9 °F 6.2 °F 17.1 °F 82% 30.26 in 6.0 mi SE 21.9 mph - N/A   Haze
8:52 PM 21.0 °F 7.6 °F 17.1 °F 85% 30.29 in 5.0 mi SSE 15.0 mph - N/A   Clear
9:52 PM 19.9 °F 7.9 °F 17.1 °F 89% 30.30 in 4.0 mi SSE 11.5 mph - N/A   Clear
10:52 PM 19.9 °F 8.6 °F 17.1 °F 89% 30.29 in 4.0 mi SSE 10.4 mph - N/A   Clear